Simultaneous Nadir Overpasses (SNOs) Predictions

Prediction of SNOs between AQUA and GOES-15 Satellite Orbit:

Table of predicted SNOs for the next 14.0 days since TLE Epoch: 6/1/2013
Index Date Time (AQUA) AQUA Lat,Lon GOES-15 Lat,Lon Distance(km) Time Diff (sec)
1 06/01/2013 10:50:48 0.71,-138.61 -0.04,-135.16 392.56 80
2 06/03/2013 10:38:36 0.06,-135.66 -0.04,-135.11 62.05 80
3 06/05/2013 10:26:23 -0.53,-132.69 -0.04,-135.05 268.05 80
4 06/05/2013 22:47:47 -0.56,-137.88 0.05,-135.02 326.25 80
5 06/07/2013 22:35:34 0.06,-134.92 0.06,-134.95 3.29 80
6 06/09/2013 22:23:21 0.69,-131.96 0.06,-134.88 332.42 80
7 06/10/2013 10:44:36 0.41,-137.12 -0.07,-134.88 253.92 80
8 06/12/2013 10:32:23 -0.24,-134.16 -0.07,-134.81 74.74 80
9 06/14/2013 10:20:09 -0.84,-131.19 -0.07,-134.73 402.97 80
10 06/14/2013 22:41:32 -0.29,-136.37 0.08,-134.68 192.40 80




NCC Satellite Simultaneous Nadir Overpasses (SNOs) Prediction Service
